Weather History for Moultrie, GA

Change the Weather History Date:

Saturday, June 15, 2013

  Actual Average (KMUL) Record (KMUL)
Temperature  
Mean Temperature 80 °F -  
Max Temperature 89 °F 90 °F 98 °F (1952)
Min Temperature 71 °F 67 °F 59 °F (1933)
Cooling Degree Days 15    
Growing Degree Days 30 (Base 50)    
Moisture  
Dew Point 68 °F    
Average Humidity 68    
Maximum Humidity 100    
Minimum Humidity 38    
Precipitation  
Precipitation 0.00 in - - ()
Sea Level Pressure  
Sea Level Pressure 30.04 in    
Wind  
Wind Speed 3 mph (East)    
Max Wind Speed 10 mph    
Max Gust Speed 20 mph    
Visibility 9 miles    
Events      
Averages and records for this station are not official NWS values.
T = Trace of Precipitation, MM = Missing Value Source: NWS Daily Summary

Daily Weather History Graph

Daily Weather History Graph

Search for Another Location

Airport:

Trip Planner

Search our weather history database for the weather conditions in past years. The results will help you decide how hot, cold, wet, or windy it might be!

Date:

Astronomy

Jun. 15, 2013 Rise Set
Actual Time 6:31 AM EDT 8:40 PM EDT
Civil Twilight 6:03 AM EDT 9:08 PM EDT
Nautical Twilight 5:29 AM EDT 9:42 PM EDT
Astronomical Twilight 4:52 AM EDT 10:19 PM EDT
Moon 12:41 PM EDT (6/15) 12:36 AM EDT (6/15)
Length of Visible Light 15h 05m
Length of Day
14h 09m
Waxing Crescent, 39% of the Moon is Illuminated
Jun 15
Waxing Crescent
Jun 16
First Quarter
Jun 23
Full
Jun 30
Last Quarter
Jul 8
New

Hourly Weather History & Observations

Time (EDT) Temp. Heat Index Dew Point Humidity Pressure Visibility Wind Dir Wind Speed Gust Speed Precip Events Conditions
12:15 AM 78.8 °F - 71.6 °F 78% 29.96 in 10.0 mi Calm Calm - N/A   Clear
12:35 AM 78.8 °F - 71.6 °F 78% 29.97 in 10.0 mi East 3.5 mph - N/A   Clear
12:55 AM 77.0 °F - 71.6 °F 83% 29.97 in 10.0 mi ENE 3.5 mph - N/A   Clear
1:15 AM 77.0 °F - 73.4 °F 89% 29.97 in 10.0 mi East 3.5 mph - N/A   Clear
1:35 AM 77.0 °F - 73.4 °F 89% 29.97 in 10.0 mi Calm Calm - N/A   Clear
1:55 AM 77.0 °F - 73.4 °F 89% 29.97 in 10.0 mi Calm Calm - N/A   Clear
2:15 AM 77.0 °F - 73.4 °F 89% 29.97 in 10.0 mi Calm Calm - N/A   Clear
2:35 AM 75.2 °F - 71.6 °F 89% 29.98 in 10.0 mi East 3.5 mph - N/A   Clear
2:55 AM 75.2 °F - 71.6 °F 89% 29.98 in 10.0 mi East 4.6 mph - N/A   Clear
3:15 AM 75.2 °F - 71.6 °F 89% 29.98 in 10.0 mi East 3.5 mph - N/A   Scattered Clouds
3:35 AM 73.4 °F - 71.6 °F 94% 29.98 in 10.0 mi East 4.6 mph - N/A   Mostly Cloudy
3:55 AM 73.4 °F - 71.6 °F 94% 29.98 in 7.0 mi East 3.5 mph - N/A   Scattered Clouds
4:15 AM 73.4 °F - 71.6 °F 94% 29.99 in 7.0 mi Calm Calm - N/A   Clear
4:35 AM 73.4 °F - 71.6 °F 94% 29.99 in 7.0 mi ENE 3.5 mph - N/A   Clear
4:55 AM 73.4 °F - 71.6 °F 94% 29.99 in 7.0 mi Calm Calm - N/A   Clear
5:15 AM 71.6 °F - 71.6 °F 100% 30.00 in 5.0 mi Calm Calm - N/A   Clear
5:35 AM 71.6 °F - 71.6 °F 100% 30.01 in 7.0 mi East 3.5 mph - N/A   Clear
5:55 AM 71.6 °F - 71.6 °F 100% 30.01 in 7.0 mi Calm Calm - N/A   Clear
6:15 AM 71.6 °F - 71.6 °F 100% 30.02 in 7.0 mi Calm Calm - N/A   Clear
6:35 AM 71.6 °F - 71.6 °F 100% 30.03 in 5.0 mi Calm Calm - N/A   Clear
6:55 AM 71.6 °F - 71.6 °F 100% 30.03 in 5.0 mi Calm Calm - N/A   Clear
7:15 AM 71.6 °F - 71.6 °F 100% 30.04 in 5.0 mi East 3.5 mph - N/A   Clear
7:35 AM 71.6 °F - 71.6 °F 100% 30.05 in 7.0 mi Calm Calm - N/A   Clear
7:55 AM 71.6 °F - 71.6 °F 100% 30.06 in 7.0 mi East 4.6 mph - N/A   Clear
8:15 AM 73.4 °F - 71.6 °F 94% 30.06 in 10.0 mi East 5.8 mph - N/A   Clear
8:35 AM 75.2 °F - 69.8 °F 83% 30.08 in 10.0 mi ESE 4.6 mph - N/A   Clear
8:55 AM 77.0 °F - 69.8 °F 78% 30.08 in 10.0 mi ESE 4.6 mph - N/A   Clear
9:15 AM 77.0 °F - 69.8 °F 78% 30.09 in 10.0 mi ESE 8.1 mph - N/A   Scattered Clouds
9:35 AM 78.8 °F - 69.8 °F 74% 30.09 in 10.0 mi ESE 6.9 mph - N/A   Scattered Clouds
9:55 AM 78.8 °F - 68.0 °F 69% 30.09 in 10.0 mi ESE 8.1 mph - N/A   Clear
10:15 AM 78.8 °F - 66.2 °F 65% 30.09 in 10.0 mi ESE 9.2 mph - N/A   Clear
10:35 AM 80.6 °F 82.3 °F 64.4 °F 58% 30.09 in 10.0 mi East 5.8 mph - N/A   Clear
10:55 AM 82.4 °F 83.4 °F 62.6 °F 51% 30.09 in 10.0 mi East 10.4 mph 17.3 mph N/A   Clear
11:15 AM 82.4 °F 83.4 °F 62.6 °F 51% 30.09 in 10.0 mi ESE 5.8 mph - N/A   Clear
11:35 AM 84.2 °F 85.0 °F 62.6 °F 48% 30.08 in 10.0 mi East 8.1 mph - N/A   Clear
11:55 AM 84.2 °F 85.0 °F 62.6 °F 48% 30.09 in 10.0 mi ESE 8.1 mph - N/A   Clear
12:15 PM 84.2 °F 85.0 °F 62.6 °F 48% 30.09 in 10.0 mi East 10.4 mph - N/A   Clear
12:35 PM 86.0 °F 86.6 °F 62.6 °F 45% 30.09 in 10.0 mi East 8.1 mph 19.6 mph N/A   Clear
12:55 PM 86.0 °F 86.6 °F 62.6 °F 45% 30.08 in 10.0 mi ENE 8.1 mph - N/A   Clear
1:15 PM 86.0 °F 86.6 °F 62.6 °F 45% 30.08 in 10.0 mi East 9.2 mph - N/A   Clear
1:35 PM 87.8 °F 88.5 °F 62.6 °F 43% 30.07 in 10.0 mi ENE 9.2 mph - N/A   Clear
1:55 PM 87.8 °F 88.5 °F 62.6 °F 43% 30.07 in 10.0 mi ESE 3.5 mph - N/A   Clear
2:15 PM 87.8 °F 88.5 °F 62.6 °F 43% 30.06 in 10.0 mi ESE 6.9 mph - N/A   Clear
2:35 PM 87.8 °F 89.4 °F 64.4 °F 46% 30.06 in 10.0 mi SE 5.8 mph - N/A   Clear
2:55 PM 87.8 °F 89.4 °F 64.4 °F 46% 30.06 in 10.0 mi ENE 4.6 mph - N/A   Scattered Clouds
3:15 PM 87.8 °F 89.4 °F 64.4 °F 46% 30.06 in 10.0 mi SE 5.8 mph - N/A   Scattered Clouds
3:35 PM 87.8 °F 89.4 °F 64.4 °F 46% 30.05 in 10.0 mi ESE 6.9 mph - N/A   Scattered Clouds
3:55 PM 89.6 °F 91.1 °F 64.4 °F 43% 30.05 in 10.0 mi East 6.9 mph - N/A   Scattered Clouds
4:15 PM 87.8 °F 89.4 °F 64.4 °F 46% 30.05 in 10.0 mi East 3.5 mph - N/A   Scattered Clouds
4:35 PM 89.6 °F 91.1 °F 64.4 °F 43% 30.05 in 10.0 mi NE 4.6 mph - N/A   Scattered Clouds
4:55 PM 89.6 °F 90.1 °F 62.6 °F 40% 30.05 in 10.0 mi East 5.8 mph - N/A   Scattered Clouds
5:15 PM 87.8 °F 88.5 °F 62.6 °F 43% 30.05 in 10.0 mi SE 4.6 mph - N/A   Scattered Clouds
5:35 PM 89.6 °F 90.1 °F 62.6 °F 40% 30.04 in 10.0 mi East 3.5 mph - N/A   Clear
5:55 PM 89.6 °F 90.1 °F 62.6 °F 40% 30.04 in 10.0 mi ENE 5.8 mph - N/A   Scattered Clouds
6:15 PM 87.8 °F 88.5 °F 62.6 °F 43% 30.03 in 10.0 mi ESE 4.6 mph - N/A   Scattered Clouds
6:35 PM 89.6 °F 89.5 °F 60.8 °F 38% 30.03 in 10.0 mi NE 3.5 mph - N/A   Clear
6:55 PM 87.8 °F 88.5 °F 62.6 °F 43% 30.03 in 10.0 mi ESE 5.8 mph - N/A   Mostly Cloudy
7:15 PM 87.8 °F 89.4 °F 64.4 °F 46% 30.04 in 10.0 mi East 3.5 mph - N/A   Overcast
7:35 PM 86.0 °F 87.3 °F 64.4 °F 48% 30.04 in 10.0 mi ESE 3.5 mph - N/A   Scattered Clouds
7:55 PM 84.2 °F 86.6 °F 66.2 °F 55% 30.04 in 10.0 mi Calm Calm - N/A   Scattered Clouds
8:15 PM 82.4 °F 84.6 °F 66.2 °F 58% 30.04 in 10.0 mi Calm Calm - N/A   Mostly Cloudy
8:35 PM 82.4 °F 85.4 °F 68.0 °F 62% 30.04 in 10.0 mi Calm Calm - N/A   Mostly Cloudy
8:55 PM 80.6 °F 83.2 °F 68.0 °F 65% 30.05 in 10.0 mi Calm Calm - N/A   Scattered Clouds
9:15 PM 80.6 °F 83.2 °F 68.0 °F 65% 30.05 in 10.0 mi Calm Calm - N/A   Scattered Clouds
9:35 PM 80.6 °F 83.2 °F 68.0 °F 65% 30.06 in 10.0 mi Calm Calm - N/A   Scattered Clouds
9:55 PM 78.8 °F - 68.0 °F 69% 30.07 in 10.0 mi Calm Calm - N/A   Clear
10:15 PM 78.8 °F - 68.0 °F 69% 30.08 in 10.0 mi ESE 3.5 mph - N/A   Clear
10:35 PM 78.8 °F - 68.0 °F 69% 30.08 in 10.0 mi Calm Calm - N/A   Clear
10:55 PM 77.0 °F - 68.0 °F 74% 30.09 in 10.0 mi ESE 3.5 mph - N/A   Clear
11:15 PM 77.0 °F - 68.0 °F 74% 30.10 in 10.0 mi ESE 3.5 mph - N/A   Clear
11:35 PM 77.0 °F - 68.0 °F 74% 30.09 in 10.0 mi ESE 6.9 mph - N/A   Clear
11:55 PM 77.0 °F - 68.0 °F 74% 30.09 in 10.0 mi SE 4.6 mph - N/A   Clear